Flag for Germany Weather past 2 weeks in Langenhagen, Lower Saxony, Germany

Now
59 °F

Clear.


Feels Like: 60 °F
Forecast: 60 / 72 °F
Wind: 3 mph from East

Location: Hannover

Current Time: Jul 24, 2014 at 5:22:32 AM

Latest Report: Jul 24, 2014 at 4:50 AM


Visibility: 10 mi

Pressure: 30.04 "Hg

Humidity: 82%

Dew point: 54 °F

Location of LangenhagenLocation

Historic Weather in Langenhagen — Graph

°F

Langenhagen temperature yesterday

Maximum temperature yesterday: 82 °F (at 3:50 PM)
Minimum temperature yesterday: 59 °F (at 4:50 AM)
Average temperature yesterday: 72 °F

Past Weeks' High & Low Weather Summary

 TemperatureHumidityPressure
High91 °F (Jul 19, 2:50 PM)100% (Jul 9, 4:50 AM)30.18 "Hg (Jul 9, 4:50 AM)
Low50 °F (Jul 12, 4:50 AM)26% (Jul 19, 2:20 PM)29.59 "Hg (Jul 9, 9:50 AM)
Average70 °F72%29.94 "Hg
* Reported Jul 9 4:50 AM — Jul 24 4:20 AM, Langenhagen, Weather by CustomWeather, © 2014

Note: Actual official high and low records may vary slightly from our data, if they occured in-between our weather recording intervals... More about our weather records

Advertising

Langenhagen weather history for previous 24 hours

 ConditionsComfort  
Time TempWeatherWind HumidityBarometerVisibility
4:20 AM
Jul 24
59 °FClear.6 mph77%30.04 "Hg10 mi
3:50 AM61 °FClear.8 mph77%30.04 "Hg10 mi
3:20 AM59 °FClear.6 mph77%30.04 "Hg10 mi
2:50 AM61 °FClear.6 mph72%30.04 "Hg10 mi
2:20 AM61 °FClear.7 mph77%30.07 "Hg10 mi
1:50 AM63 °FClear.8 mph73%30.07 "Hg10 mi
1:20 AM64 °FClear.8 mph68%30.07 "Hg10 mi
12:50 AM64 °FClear.6 mph68%30.07 "Hg10 mi
12:20 AM66 °FClear.8 mph64%30.07 "Hg10 mi
11:50 PM
Jul 23
66 °FClear.8 mph60%30.07 "Hg10 mi
11:20 PM68 °FClear.9 mph60%30.07 "Hg10 mi
10:50 PM70 °FClear.10 mph57%30.07 "Hg10 mi
10:20 PM72 °FSunny.10 mph53%30.07 "Hg10 mi
9:50 PM73 °FSunny.10 mph50%30.07 "Hg10 mi
9:20 PM73 °FSunny.9 mph50%30.04 "Hg10 mi
8:50 PM75 °FSunny.10 mph47%30.04 "Hg10 mi
8:20 PM77 °FSunny.10 mph44%30.04 "Hg10 mi
7:50 PM77 °FSunny.8 mph44%30.04 "Hg10 mi
7:20 PM81 °FSunny.12 mph39%30.04 "Hg10 mi
6:50 PM79 °FSunny.12 mph42%30.04 "Hg10 mi
6:20 PM81 °FPassing clouds.12 mph34%30.04 "HgN/A
5:50 PM81 °FPassing clouds.10 mph34%30.04 "HgN/A
5:20 PM81 °FPassing clouds.13 mph32%30.04 "HgN/A
4:50 PM81 °FPassing clouds.14 mph37%30.07 "HgN/A
4:20 PM81 °FPassing clouds.13 mph42%30.07 "HgN/A
3:50 PM82 °FPassing clouds.13 mph40%30.07 "HgN/A
3:20 PM81 °FPassing clouds.12 mph45%30.07 "HgN/A
2:20 PM81 °FPassing clouds.10 mph42%30.09 "HgN/A
1:50 PM79 °FPassing clouds.12 mph51%30.09 "HgN/A
1:20 PM79 °FPassing clouds.10 mph48%30.09 "HgN/A
12:20 PM77 °FPassing clouds.12 mph54%30.12 "HgN/A
11:20 AM75 °FSunny.13 mph57%30.12 "Hg10 mi
7:50 AM66 °FSunny.7 mph73%30.15 "Hg10 mi
7:20 AM64 °FPassing clouds.5 mph78%30.15 "HgN/A
6:50 AM63 °FSunny.3 mph83%30.12 "Hg10 mi
6:20 AM59 °FPassing clouds.3 mph88%30.12 "HgN/A
5:50 AM59 °FClear.3 mph88%30.12 "Hg10 mi
5:20 AM59 °FClear.3 mph88%30.12 "Hg10 mi
Weather by CustomWeather, © 2014

See weather overviewHow to use our weather pages